BEIDOU-3 M2 (C20)

Last updated on Sat Aug 15 2026 00:03:26 GMT+0000 (Coordinated Universal Time)

1 43002U 17069B 26224.98925520 -.00000027 00000+0 00000+0 0 9996 2 43002 56.7423 61.2511 0007165 0.8590 359.2097 1.86230395 59652
UTC large
Height (km)
Speed (km/s)
/
Latitude / Longitude
Inclination (degrees)
Orbital Period (minutes)
Azimuth
Elevation
Range (km)
Doppler Factor

Next 0 passes for location: London (51.5072 / 0.1276)

No passes found over London.
BEIDOU-3 M2 (C20)